Regional Weather Roundup
Issued by NWS Green Bay, WI

Home | Current Version | Previous Version | Graphics & Text | Print | Product List | Glossary Off
Versions: 1 2 3 4 5 6 7 8 9 10 11 12 13 14 15 16 17 18 19 20 21 22 23 24 25 26 27 28 29 30 31 32 33 34 35 36 37 38 39 40 41 42 43 44 45 46 47 48 49 50

000
ASUS43 KGRB 290159
RWRGRB

NORTH-CENTRAL AND NORTHEAST WISCONSIN REGIONAL WEATHER ROUNDUP
NATIONAL WEATHER SERVICE GREEN BAY WI
900 PM CDT SAT MAR 28 2015

WIZ005-009-010>012-018-019-290300-
NORTH CENTRAL WISCONSIN

CITY           SKY/WX    TMP DP  RH WIND       PRES   REMARKS
IRONWOOD       MOCLDY    36  10  35 S7        29.99F
MANITOWISH WTR NOT AVBL
ARBOR VITAE    NOT AVBL
EAGLE RIVER    NOT AVBL
LAND O LAKES   NOT AVBL
RHINELANDER    CLEAR     32  10  40 SW8       30.08S
PHILLIPS       CLEAR     33  11  40 SW5       30.06S
ANTIGO         NOT AVBL
TOMAHAWK       NOT AVBL
MERRILL        NOT AVBL
$$

WIZ013-073-290300-
NORTHEAST WISCONSIN

CITY           SKY/WX    TMP DP  RH WIND       PRES   REMARKS
IRON MOUNTAIN  MOCLDY    32   9  38 S3        30.09S
MARINETTE      PTCLDY    30  21  69 S10       30.17S
$$

WIZ017-030-035>037-045-290300-
CENTRAL WISCONSIN

CITY           SKY/WX    TMP DP  RH WIND       PRES   REMARKS
MEDFORD        NOT AVBL
WAUSAU         CLEAR     34  13  41 SW9       30.11S
MOSINEE        NOT AVBL
MARSHFIELD     CLEAR     32  12  43 S10       30.13S
WISC RAPIDS    CLEAR     32  12  43 S6        30.17S
STEVENS POINT  NOT AVBL
WAUPACA        CLEAR     33  13  43 S7        30.18S
SHAWANO        PTCLDY    35  12  39 S3        30.16F
CLINTONVILLE   PTCLDY    32  14  47 S8        30.17R
$$

WIZ038-039-048-051-290300-
FOX VALLEY

CITY           SKY/WX    TMP DP  RH WIND       PRES   REMARKS
NWS GREEN BAY  CLEAR     30  21  69 S9        30.20R
APPLETON       PTCLDY    32  12  43 SW12      30.19S
OSHKOSH        CLEAR     31  15  52 S9        30.20S
FOND DU LAC    CLEAR     30  15  53 S7        30.21S
$$

WIZ022-050-052-290300-
EAST CENTRAL WISCONSIN

CITY           SKY/WX    TMP DP  RH WIND       PRES   REMARKS
STURGEON BAY   CLEAR     28  18  64 S15       30.21F
MANITOWOC      NOT AVBL
SHEBOYGAN      CLEAR     26  18  71 S10       30.24S
$$

LMZ563-521-522-541>543-290300-
LAKESHORE

STATION/POSITION TIME  TEMP    WIND        PRES    VSBY  WAVE
                       AIR SEA DIR/SP/G                  HT/PER
                 (UTC) (F)     (DEG/KT/KT) (MB)    (MI)  (FT/S)
SHEBOYGAN LKSHOR 0100   30     190/ 20/ 22 1025.1F
KEWAUNEE LKSHORE 0100   30     200/ 13/ 19 1022.6S
NORTHPORT PIER   0100   29     160/  7/ 14 1022.4S
CHAMBERS ISLAND  0100   29     150/  7/ 14 1022.4S
MENOMINEE LKSHOR 0100   31      10/ 12     1022.7R
$$



USA.gov is the U.S. government's official web portal to all federal, state and local government web resources and services.